TimePST,TemperatureF,Dew PointF,Humidity,Sea Level PressureIn,VisibilityMPH,Wind Direction,Wind SpeedMPH,Gust SpeedMPH,PrecipitationIn,Events,Conditions,WindDirDegrees,DateUTC
12:56 AM,35.1,33.1,92,30.29,10.0,South,12.7,20.7,N/A,,Overcast,180,2012-11-12 08:56:00
1:36 AM,35.6,33.8,93,30.22,7.0,South,15.0,23.0,0.01,Rain,Light Rain,180,2012-11-12 09:36:00
1:56 AM,35.1,33.1,92,30.29,8.0,South,15.0,21.9,0.02,Rain,Rain,180,2012-11-12 09:56:00
2:08 AM,33.8,33.8,100,30.22,4.0,South,15.0,23.0,0.00,Rain,Rain,170,2012-11-12 10:08:00
2:11 AM,33.8,33.8,100,30.22,2.5,South,15.0,24.2,0.00,Rain,Rain,170,2012-11-12 10:11:00
2:17 AM,33.8,33.8,100,30.22,1.2,South,15.0,24.2,0.01,Rain,Rain,170,2012-11-12 10:17:00
2:24 AM,33.8,33.8,100,30.22,1.0,SSE,15.0,-,0.01,Rain,Rain,160,2012-11-12 10:24:00
2:39 AM,33.8,33.8,100,30.22,0.8,SSE,16.1,-,0.02,Rain,Rain,160,2012-11-12 10:39:00
2:53 AM,33.8,33.8,100,30.21,0.2,SSE,15.0,-,0.03,Fog-Rain,Rain,160,2012-11-12 10:53:00
2:56 AM,34.0,33.1,96,30.29,0.5,SSE,15.0,-,0.03,Fog-Rain,Rain,160,2012-11-12 10:56:00
3:09 AM,33.8,33.8,100,30.21,0.5,South,16.1,23.0,0.00,Fog-Rain,Rain,170,2012-11-12 11:09:00
3:29 AM,33.8,33.8,100,30.20,1.0,SSE,18.4,-,0.00,Rain,Rain,160,2012-11-12 11:29:00
3:32 AM,33.8,33.8,100,30.20,4.0,South,17.3,-,0.00,Rain,Rain,170,2012-11-12 11:32:00
3:56 AM,34.0,32.0,92,30.27,3.0,South,15.0,-,0.00,Rain,Rain,170,2012-11-12 11:56:00
4:56 AM,34.0,33.1,96,30.28,10.0,South,15.0,23.0,N/A,,Overcast,180,2012-11-12 12:56:00
5:10 AM,33.8,33.8,100,30.21,7.0,South,15.0,19.6,N/A,,Overcast,170,2012-11-12 13:10:00
5:39 AM,35.6,33.8,93,30.20,4.0,South,19.6,27.6,N/A,,Overcast,180,2012-11-12 13:39:00
5:42 AM,35.6,33.8,93,30.20,1.5,South,20.7,27.6,N/A,,Overcast,180,2012-11-12 13:42:00
5:46 AM,35.6,33.8,93,30.20,0.8,South,17.3,28.8,N/A,,Overcast,180,2012-11-12 13:46:00
5:56 AM,36.0,35.1,97,30.26,0.5,South,19.6,29.9,N/A,Fog,Fog,180,2012-11-12 13:56:00
6:03 AM,35.6,35.6,100,30.20,0.2,South,18.4,28.8,N/A,Fog,Fog,180,2012-11-12 14:03:00
6:19 AM,35.6,35.6,100,30.20,0.2,South,19.6,28.8,N/A,Fog-Rain,Light Rain,180,2012-11-12 14:19:00
6:32 AM,35.6,35.6,100,30.20,0.5,South,17.3,25.3,N/A,Fog-Rain,Light Rain,180,2012-11-12 14:32:00
6:39 AM,35.6,33.8,93,30.20,1.5,South,18.4,25.3,N/A,,Overcast,180,2012-11-12 14:39:00
6:42 AM,35.6,33.8,93,30.20,3.0,South,17.3,25.3,N/A,,Overcast,180,2012-11-12 14:42:00
6:51 AM,35.6,33.8,93,30.20,10.0,South,16.1,24.2,N/A,,Overcast,190,2012-11-12 14:51:00
6:56 AM,35.1,34.0,96,30.27,10.0,South,17.3,24.2,N/A,,Overcast,190,2012-11-12 14:56:00
7:40 AM,35.6,33.8,93,30.21,10.0,South,13.8,23.0,N/A,Rain,Light Rain,190,2012-11-12 15:40:00
7:56 AM,35.1,33.1,92,30.27,10.0,South,16.1,-,N/A,,Overcast,170,2012-11-12 15:56:00
8:56 AM,36.0,34.0,93,30.28,8.0,South,13.8,-,N/A,,Overcast,180,2012-11-12 16:56:00
9:06 AM,35.6,33.8,93,30.22,10.0,South,13.8,-,N/A,,Overcast,180,2012-11-12 17:06:00
9:13 AM,35.6,35.6,100,30.22,10.0,South,12.7,-,N/A,,Overcast,180,2012-11-12 17:13:00
9:56 AM,37.0,34.0,89,30.28,10.0,SSE,15.0,21.9,N/A,Rain,Light Rain,160,2012-11-12 17:56:00
10:56 AM,39.0,36.0,89,30.28,10.0,SSE,16.1,-,N/A,,Overcast,160,2012-11-12 18:56:00
11:19 AM,39.2,37.4,93,30.23,8.0,SSE,15.0,-,N/A,Rain,Light Rain,160,2012-11-12 19:19:00
11:56 AM,39.0,37.0,93,30.26,8.0,SSE,13.8,-,N/A,Rain,Light Rain,160,2012-11-12 19:56:00
12:21 PM,39.2,37.4,93,30.21,1.8,SSE,13.8,19.6,0.01,Rain,Light Rain,150,2012-11-12 20:21:00
12:24 PM,39.2,37.4,93,30.21,0.8,SSE,12.7,20.7,0.01,Rain,Light Rain,150,2012-11-12 20:24:00
12:30 PM,39.2,37.4,93,30.22,0.2,SSE,12.7,20.7,0.02,Fog-Rain,Light Rain,160,2012-11-12 20:30:00
12:47 PM,37.4,37.4,100,30.21,0.2,SSE,15.0,-,0.02,Fog-Rain,Light Rain,160,2012-11-12 20:47:00
12:56 PM,39.0,39.0,100,30.25,0.2,SSE,17.3,26.5,0.02,Fog-Rain,Light Rain,160,2012-11-12 20:56:00
1:56 PM,39.9,39.0,97,30.25,0.2,South,11.5,17.3,0.02,Fog-Rain,Rain,190,2012-11-12 21:56:00
2:56 PM,41.0,39.9,96,30.25,0.2,South,8.1,-,0.03,Fog-Rain,Rain,190,2012-11-12 22:56:00
3:56 PM,41.0,39.9,96,30.25,0.2,South,10.4,-,0.03,Fog-Rain,Rain,180,2012-11-12 23:56:00
4:56 PM,41.0,39.9,96,30.25,0.2,South,8.1,-,0.01,Fog-Rain,Rain,180,2012-11-13 00:56:00
5:56 PM,41.0,39.9,96,30.25,0.2,SE,6.9,-,0.01,Fog-Rain,Rain,140,2012-11-13 01:56:00
6:56 PM,41.0,39.9,96,30.26,0.2,SE,8.1,-,0.01,Fog-Rain,Rain,140,2012-11-13 02:56:00
7:56 PM,41.0,39.9,96,30.27,0.2,SE,9.2,-,0.01,Fog-Rain,Rain,140,2012-11-13 03:56:00
8:56 PM,41.0,39.9,96,30.27,0.2,SSE,9.2,-,0.01,Fog-Rain,Rain,150,2012-11-13 04:56:00
9:56 PM,39.9,39.9,100,30.27,0.2,SSE,9.2,-,0.01,Fog-Rain,Rain,150,2012-11-13 05:56:00
10:56 PM,41.0,39.9,96,30.25,0.2,SSE,9.2,-,0.00,Fog-Rain,Rain,150,2012-11-13 06:56:00
11:56 PM,41.0,39.9,96,30.25,0.2,SSE,10.4,-,N/A,Fog-Rain,Rain,160,2012-11-13 07:56:00